User: anonymous
Location: Caltech
(34.1382°N, 118.1253°W)
Time: 01:58:15
(UTC-07:00)
Language:

HO-68 - Orbit

View from above orbital plane
View from above orbital plane
View from above satellite
View from above satellite

Ground track
Ground track

The orbit data is extracted from the following two-line orbital elements,

1 36122U 09072B   14205.73324199 -.00000043  00000-0  00000+0 0  7920
2 36122 100.2449 256.4612 0007733 150.5044 209.6497 13.16317023221370
Epoch (UTC): 24 July 2014 17:35:52
Eccentricity: 0.0007733
inclination: 100.2449°
perigee height: 1193 km
apogee height: 1204 km
right ascension of ascending node: 256.4612°
argument of perigee: 150.5044°
revolutions per day: 13.16317023
mean anomaly at epoch: 209.6497°
orbit number at epoch: 22137

The dashed part of the orbit path shows where the satellite is in the earth's shadow,  

DLR